Location: Columbia
(38.9520°N, 92.3340°W)
Time: 01:12:06
(UTC-05:00)

Cosmos 1603 - Visible Passes

Search period start: 24 April 2014 00:00
Search period end: 04 May 2014 00:00
Orbit: 832 x 859 km, 71.0° (Epoch: 23 April)

Date Brightness Start Highest point End Pass type
(mag) Time Alt. Az. Time Alt. Az. Time Alt. Az.
24 Apr 5.5 21:21:23 10° NW 21:26:01 27° WSW 21:30:38 10° SSW visible
25 Apr 5.5 21:07:32 10° NW 21:12:14 28° WSW 21:16:54 10° SSW visible
26 Apr 5.5 20:53:41 10° NW 20:58:26 29° WSW 21:03:10 10° SSW visible
27 Apr 5.6 20:39:51 10° NW 20:44:39 30° WSW 20:49:26 10° SSW visible
28 Apr 5.6 20:26:01 10° NW 20:30:52 31° WSW 20:35:41 10° SSW visible
